SCP
0 0 0 0 0 0 0 0 0 0 0 0 0 1 1 1 2 2 1 2 3 4 4 4 3 2 2 3 3 3 4 3 3 4 4 4 3 1 1 1 1 2 2 1
0 0 0 0 0 0 0 0 0 0 0 0 0 1 1 1 1 1 1 2 2 3 4 4 3 2 3 3 4 4 4 4 4 4 4 4 2 2 1 1 2 2 2 2
0 0 0 0 0 0 0 0 0 0 0 0 0 0 1 1 1 1 1 1 2 3 4 3 3 2 3 4 4 4 4 4 4 5 4 3 3 2 2 1 2 2 3 3
0 0 0 0 0 0 0 0 0 0 0 0 0 0 0 1 1 1 1 1 2 2 3 3 3 3 3 3 4 4 5 5 5 5 5 4 3 3 2 2 1 2 2 2
0 0 0 0 0 0 0 0 0 0 0 0 0 0 0 0 1 1 1 1 2 2 2 3 4 4 3 2 3 4 5 5 5 5 5 4 3 3 2 2 2 2 2 2
0 0 0 0 0 0 0 0 0 0 0 0 0 0 0 0 0 1 1 1 1 2 2 3 4 3 2 2 2 3 4 4 4 4 4 4 3 3 3 2 2 2 2 2
0 0 0 0 0 0 0 0 0 0 0 0 0 0 0 0 0 1 1 1 1 2 2 3 3 3 2 2 2 3 3 4 4 4 3 3 3 3 3 3 2 2 2 2
0 0 0 0 0 0 0 0 0 0 0 0 0 0 0 0 0 1 1 1 1 2 2 2 2 2 2 2 2 2 3 4 4 4 3 3 3 3 3 3 2 2 2 2
0 0 0 0 0 0 0 0 0 0 0 0 0 0 0 0 0 1 1 1 2 2 2 2 2 2 2 2 2 2 3 4 4 4 3 3 3 3 3 2 2 2 2 1
0 0 0 0 0 0 0 0 0 0 0 0 0 0 0 0 1 1 1 1 2 2 2 2 3 3 3 2 2 2 3 4 5 4 3 3 2 2 2 2 2 2 2 2
0 0 0 0 0 0 0 0 0 0 0 0 0 0 0 0 1 1 1 1 2 2 2 3 3 4 4 3 3 3 4 4 4 4 3 2 2 2 2 2 2 2 2 2
0 0 0 0 0 0 0 0 0 0 0 0 0 0 0 1 1 1 1 2 2 2 2 3 3 4 4 3 3 3 3 4 4 4 3 3 2 2 2 2 2 3 3 3
0 0 0 0 0 0 0 0 0 0 0 0 0 0 0 1 1 1 1 2 2 2 2 3 3 4 4 4 3 3 3 4 4 4 3 3 2 2 2 2 2 3 3 3
0 0 0 0 0 0 0 0 0 0 0 0 0 0 0 1 1 1 2 2 2 2 3 3 4 4 5 4 4 4 4 5 5 4 4 3 2 2 2 2 2 3 3 3
0 0 0 0 0 0 0 0 0 0 0 0 0 0 1 1 2 2 2 2 3 3 3 3 4 5 5 5 5 5 5 5 5 5 4 4 3 3 3 3 3 3 4 4
0 0 0 0 0 0 0 0 0 0 0 0 0 0 1 2 2 2 2 3 3 3 4 4 4 5 6 6 6 6 6 6 5 5 5 4 5 4 4 4 4 4 4 4
0 0 0 0 0 0 0 0 0 0 1 1 1 1 2 2 2 2 3 3 3 4 4 5 5 5 6 7 7 7 7 6 6 6 5 5 5 5 4 4 4 4 4 4
0 0 0 0 0 0 0 1 1 1 1 2 2 2 2 3 3 3 3 3 4 4 5 5 5 5 6 7 8 8 7 7 7 7 6 6 6 6 5 5 4 4 4 5
1 1 0 0 0 0 1 1 1 1 1 2 3 3 4 3 3 3 3 4 4 5 5 6 6 6 7 7 8 9 10 10 9 8 7 9 10 8 7 6 5 5 5 5
0 1 0 0 0 0 1 1 2 1 2 3 4 4 4 4 3 3 4 5 5 5 5 6 7 8 8 8 9 11 14 14 11 9 10 12 13 11 9 8 7 6 6 6
0 1 0 0 0 1 2 2 2 2 3 4 5 5 5 4 4 4 5 5 5 5 5 7 8 9 9 9 11 13 15 15 13 12 13 14 12 11 11 11 10 9 8 7
1 1 1 1 1 2 3 3 3 3 4 5 6 6 6 5 5 5 5 5 6 6 7 8 9 9 8 9 11 13 14 14 13 13 13 12 11 11 12 14 14 12 9 8
2 1 2 2 2 3 5 5 5 5 6 6 6 7 7 6 6 6 5 5 6 7 8 10 9 9 8 8 10 11 12 11 11 10 10 10 10 10 11 12 12 11 9 7
2 3 3 4 4 6 7 8 8 7 7 7 7 8 8 8 7 7 7 6 7 8 9 10 9 8 8 8 9 9 10 9 9 9 10 11 11 9 8 8 8 8 7 6
4 4 5 5 6 7 9 9 8 8 7 7 6 7 8 9 8 9 9 8 8 9 9 8 7 7 7 7 8 8 8 9 10 11 12 11 10 7 5 5 5 4 4 3
5 5 5 6 7 8 10 10 8 7 6 5 5 6 7 9 9 10 10 10 10 10 9 7 6 6 6 8 8 8 8 9 10 12 12 10 8 5 4 4 3 2 1 1
Wind_Speed
5 9 9 5 4 4 3 4 2 1 1 4 4 4 4 8 9 9 10 10 11 11 10 10 10 10 10 9 10 10 9 8 7 6 6 6 5 5 5 5 5 6 6 6
9 11 4 2 3 5 6 6 4 3 2 4 3 4 4 7 9 9 10 11 11 11 11 10 10 10 10 10 10 10 10 9 9 7 5 4 4 4 4 4 4 6 6 6
13 3 4 6 8 8 8 7 3 2 3 5 5 6 6 7 8 9 10 10 11 11 11 11 11 11 10 10 11 9 10 10 10 8 6 5 4 4 5 5 5 6 6 7
10 6 6 9 9 9 7 3 3 4 7 3 4 4 5 7 8 10 11 11 12 12 11 11 11 11 10 10 10 10 9 9 9 9 8 8 6 5 5 4 4 5 6 7
8 8 10 11 9 9 3 2 3 4 6 6 5 7 2 7 7 9 10 11 12 12 12 12 11 10 10 9 9 9 9 9 9 9 8 8 7 5 4 4 4 5 5 6
5 5 6 6 5 5 7 6 5 6 8 9 4 7 3 4 4 5 7 9 10 11 12 11 10 9 9 9 9 9 9 9 9 9 9 9 7 6 5 5 4 5 4 4
10 11 8 6 8 9 10 10 8 9 8 6 3 7 2 2 1 3 4 7 10 11 11 11 11 11 10 9 9 9 10 9 9 9 9 8 7 6 7 6 5 5 4 4
13 13 13 11 13 10 13 13 9 7 6 4 6 6 1 2 1 2 4 7 10 11 11 12 12 11 10 10 10 9 9 8 8 8 8 7 7 6 4 5 4 4 4 3
10 10 9 8 8 11 12 12 10 8 7 7 5 4 4 4 4 5 7 9 10 11 11 11 11 11 10 9 9 9 9 8 8 8 7 7 6 5 4 4 5 4 4 4
7 8 9 8 8 4 8 9 7 10 9 10 7 8 4 5 5 6 8 9 10 11 11 11 11 11 10 9 9 9 8 8 8 8 7 6 5 5 5 5 4 4 4 4
11 10 10 11 13 13 10 10 10 9 8 9 7 5 2 3 2 4 6 7 9 11 11 11 10 10 10 10 10 9 9 8 8 7 6 5 5 5 5 4 4 4 4 4
11 10 10 12 7 5 12 13 13 11 9 9 9 3 5 1 1 2 4 6 7 9 10 11 11 11 10 10 10 9 9 9 8 7 7 6 5 5 5 4 4 4 4 4
9 9 11 12 11 9 12 12 13 13 9 10 11 6 6 3 2 2 2 5 7 8 10 10 11 11 10 10 10 9 9 8 8 8 7 7 6 6 5 4 4 4 4 4
7 10 13 14 10 12 14 14 14 14 12 12 13 9 5 4 3 2 2 4 7 8 9 10 11 10 10 10 9 9 8 8 8 8 8 7 6 5 5 4 3 4 4 4
7 12 13 14 10 10 13 15 16 17 16 14 12 12 8 5 4 2 2 4 6 8 9 10 11 10 10 10 10 9 8 8 8 8 7 7 6 5 4 4 3 3 4 3
6 9 11 13 12 12 14 15 16 17 16 15 13 10 5 3 2 2 3 4 6 7 9 10 10 11 11 11 10 10 9 9 8 8 7 6 6 5 4 4 3 3 3 3
7 8 10 13 12 12 17 15 15 15 14 13 13 9 4 3 2 2 2 3 4 5 7 8 9 10 10 10 10 10 9 9 9 8 7 6 6 5 4 4 3 3 3 3
8 9 8 11 11 17 10 8 11 12 11 10 8 5 3 3 1 1 0 1 2 3 4 6 7 8 9 9 9 9 9 9 9 8 7 6 5 5 4 3 2 2 2 2
10 10 9 11 14 14 8 5 7 10 10 8 7 5 2 1 3 4 3 2 1 0 1 3 5 6 7 8 9 9 9 9 8 7 6 6 5 5 5 4 3 2 2 2
9 10 11 12 15 16 8 4 3 8 10 4 5 4 3 3 7 3 4 3 2 2 1 2 3 5 6 7 8 9 9 9 7 6 5 5 5 5 4 4 3 3 3 3
11 11 14 14 14 9 2 1 5 11 4 2 2 2 3 2 3 3 3 3 3 3 3 3 4 5 6 6 7 7 7 7 6 6 5 4 4 3 3 3 3 3 3 3
10 10 12 12 15 8 3 2 3 2 4 1 0 0 0 2 3 3 3 3 3 3 3 4 5 5 5 6 7 7 6 5 5 5 5 4 3 2 2 3 3 3 3 4
6 4 4 4 2 5 3 2 3 2 2 2 2 1 2 2 3 3 4 4 4 4 4 4 6 6 5 5 6 6 6 6 6 6 5 4 3 2 2 2 3 3 3 3
2 1 2 2 2 2 2 3 3 3 2 3 2 2 2 3 3 4 4 4 4 4 4 4 5 6 5 4 4 5 5 5 6 6 5 4 3 3 2 1 1 1 1 1
2 3 3 3 3 2 2 3 3 3 3 3 3 3 3 3 3 3 3 3 3 3 4 4 4 5 5 5 4 4 4 4 4 5 4 4 3 3 2 2 2 1 2 2
4 4 4 2 1 1 1 2 2 3 4 4 4 4 4 3 3 3 3 3 3 3 3 4 5 5 5 4 4 3 3 3 4 4 4 3 3 3 2 3 4 6 4 5
Wind_Direction
208 227 221 218 247 292 271 256 232 128 103 238 232 225 176 178 194 191 189 191 192 195 186 182 187 193 192 193 196 199 202 196 199 205 209 206 213 218 219 222 218 221 229 224
212 223 220 209 210 227 230 233 205 159 129 256 250 233 192 189 201 201 196 193 194 189 182 181 186 191 194 194 198 199 202 201 203 203 212 216 222 229 226 232 222 226 227 229
227 186 158 202 204 215 221 239 223 191 179 209 254 217 192 184 197 203 207 202 196 191 185 181 188 191 193 196 198 201 203 202 205 203 206 208 213 230 223 221 223 226 228 227
229 195 200 211 211 223 213 213 231 217 236 213 267 276 166 179 193 199 203 203 201 194 189 184 186 188 194 196 195 198 199 202 202 203 212 217 223 229 233 229 225 228 234 236
201 196 208 217 217 227 207 146 205 232 250 258 234 274 158 175 202 202 199 199 199 194 190 187 188 189 191 191 190 190 193 200 201 205 210 220 231 235 234 232 231 236 233 236
209 190 226 220 196 200 159 168 180 228 245 246 252 272 234 174 207 196 184 186 191 191 188 184 184 184 187 187 188 190 189 196 199 203 209 221 233 239 243 238 235 231 224 226
208 208 204 203 184 178 201 211 216 220 224 233 159 256 268 72 242 233 196 177 177 182 184 181 183 183 186 187 187 187 188 193 196 199 207 218 228 234 236 239 226 232 237 230
204 204 198 204 218 202 211 226 241 254 246 199 179 240 188 106 195 214 186 165 167 174 178 180 182 182 182 184 184 186 186 189 191 197 202 214 221 227 228 229 244 239 247 250
216 209 175 201 223 228 207 227 247 253 264 268 223 224 211 172 180 173 168 162 168 172 172 175 176 177 179 181 183 184 183 185 189 195 193 204 211 225 232 229 232 237 239 243
236 221 182 172 187 219 248 222 218 242 243 247 228 230 216 176 178 170 171 170 169 170 173 172 172 173 174 176 176 179 180 182 185 188 195 192 197 206 220 234 236 245 248 249
231 229 198 191 210 199 190 209 225 237 249 255 241 213 150 193 183 186 179 172 174 175 174 173 171 170 170 170 170 173 174 178 181 185 189 194 196 200 208 217 226 233 240 239
218 231 223 212 202 261 223 218 213 224 226 245 265 223 121 185 205 205 188 170 176 179 176 173 170 169 172 173 172 171 173 176 178 178 182 189 195 203 212 210 219 228 235 240
200 222 219 208 201 205 223 221 225 233 234 235 242 223 140 164 207 197 184 170 176 179 179 174 171 174 176 176 174 171 175 176 173 172 178 183 193 198 209 218 223 228 237 243
224 226 232 232 221 201 209 213 217 225 229 231 238 249 204 220 244 225 193 185 180 179 182 181 176 176 177 176 174 175 176 172 171 173 178 183 193 199 206 213 217 224 231 235
231 230 233 252 257 236 224 219 215 224 238 245 238 239 247 250 258 246 200 187 182 180 183 186 184 179 179 178 177 176 174 171 172 175 179 181 184 191 201 207 216 219 225 227
230 246 233 236 237 238 238 232 224 227 235 243 248 243 246 253 250 212 194 193 195 193 190 189 188 183 182 180 180 175 175 171 172 178 179 175 180 186 193 197 200 202 208 216
221 232 232 232 224 233 234 230 228 227 231 237 238 240 231 228 228 220 211 206 210 207 199 193 190 187 183 180 177 176 174 171 173 177 178 176 183 186 191 200 196 194 199 198
232 231 232 236 217 231 233 228 231 226 229 234 239 236 237 244 212 171 129 274 240 221 207 197 192 183 179 174 171 172 170 172 175 176 179 180 187 181 175 184 191 199 203 201
224 224 233 231 224 229 215 209 222 222 225 226 227 225 214 193 195 159 74 25 342 285 218 201 192 178 169 167 162 163 166 168 172 174 176 177 184 179 177 183 188 193 197 196
200 219 232 228 234 231 203 165 238 228 213 198 215 215 217 220 233 130 60 30 38 57 95 143 157 152 153 158 159 161 162 164 167 167 170 171 175 181 181 175 184 188 198 200
194 205 223 228 232 233 87 179 210 220 189 127 217 233 233 234 343 49 55 57 60 74 99 120 133 137 139 143 148 151 150 156 156 153 151 155 161 176 178 167 171 184 199 201
218 214 217 227 231 212 57 214 227 27 38 39 1 328 32 82 87 95 84 83 85 92 101 111 116 114 121 132 137 141 141 142 143 143 139 137 139 155 158 163 171 186 205 204
246 278 253 259 274 52 44 47 26 1 13 17 8 36 114 121 109 97 93 91 87 89 95 104 112 111 111 126 134 141 136 140 142 136 131 130 128 128 144 170 179 187 210 234
186 292 254 208 147 104 71 52 25 20 21 14 22 67 113 116 106 99 92 92 89 86 96 102 108 108 104 105 111 121 127 140 144 138 138 138 134 132 118 128 183 185 188 236
282 231 221 212 181 154 108 51 29 39 48 51 66 74 85 97 98 98 99 97 88 85 87 98 102 105 103 100 101 108 121 138 140 137 136 136 135 129 126 105 57 31 54 18
251 252 240 219 147 258 80 24 19 55 60 55 61 70 75 82 87 84 87 94 95 95 94 100 102 103 104 103 97 92 103 123 134 137 140 145 146 145 148 135 118 65 59 63